sat.trackr.live / text

‹ back to catalog

STARLINK-32791

NORAD 62530 · 2025-004V

PAYLOAD ACTIVE UNKNOWN

§ Identity

Operator
Country
US
Launch date
2025-01-08
Launch site
AFETR
Launch vehicle
Mass (kg)
RCS (m²)

Purposes: comms

External: N2YO · Heavens-Above · Gunter

§ Orbital elements

Epoch: 2026-05-24T07:17:04.864992Z

Period
94.27 min
Inclination
42.9992°
Eccentricity
0.0001597
Mean motion
15.27566014 rev/d
Perigee alt
482.0 km
Apogee alt
484.2 km
Semi-major
6,861.2 km
B*
6.1705e-4
RAAN
152.7613°
Arg perigee
261.4109°
Mean anomaly
98.6562°
Rev number
7,802

§ Raw data

STARLINK-327911 62530U 25004V   26144.30352853  .00016749  00000+0  61705-3 0  99912 62530  42.9992 152.7613 0001597 261.4109  98.6562 15.27566014 78023

JSON: /api/v1/satellites/62530 · /tle

For live sub-satellite position, see the globe view (requires WebGL).

§ Visibility from observer

Set your observer location to see the next 7 days of passes ≥ 10°. The values pass through the URL so the page stays shareable.

No JS? Fill the form by hand. The geolocation button needs JavaScript.